Theta_e
331 329 327 326 325 325 325 325 324 324 324 323 321 319 317 316 317 315 315 315 314 315 315 313 313 314 314 313 313 313 314 315 315 316 316 316 316 317 318 319 321 321 321 322 323 323 323 323 323 323 324 325 325 326 326 327 328 328 329 329 329 329 329
327 326 325 324 323 323 323 323 323 321 320 319 317 315 314 314 314 313 313 313 312 312 312 311 312 312 311 311 311 311 311 312 312 312 312 312 312 312 312 313 314 316 316 318 319 319 318 319 320 320 320 320 319 318 319 321 323 325 326 327 327 327 327
325 325 324 323 322 321 320 320 320 318 316 315 313 313 312 312 312 311 311 310 310 310 310 309 309 309 309 308 308 308 308 308 308 308 309 309 309 310 310 311 312 314 314 315 315 315 314 316 316 316 316 318 318 315 314 317 318 319 321 322 324 324 325
325 324 323 322 321 320 319 318 316 315 313 311 311 311 310 310 309 309 309 308 307 307 307 306 306 305 305 304 304 304 304 304 304 304 304 304 305 306 307 310 311 313 313 312 311 312 312 313 314 314 314 315 314 312 311 312 312 315 318 320 322 322 322
324 323 322 322 320 320 318 316 315 314 311 309 309 308 307 307 306 305 305 304 304 303 303 302 301 301 301 301 301 300 300 300 300 300 300 300 300 301 304 308 311 312 310 308 310 310 310 310 311 312 311 310 309 305 303 305 305 307 310 314 318 321 322
322 322 321 320 318 318 316 315 314 312 309 307 306 304 303 303 302 302 301 301 301 300 300 299 299 299 299 299 298 298 298 298 298 298 298 298 298 299 303 308 311 311 306 306 310 309 308 309 310 310 309 308 308 306 303 304 304 301 302 306 310 313 315
319 320 319 317 316 316 314 314 313 309 305 304 303 301 300 299 300 300 299 299 299 298 298 298 298 298 298 298 298 298 297 297 297 297 298 298 298 299 301 307 310 306 300 303 305 304 307 309 308 309 308 307 308 307 306 305 305 305 303 301 301 303 303
317 317 316 315 314 313 313 313 311 306 302 301 299 299 299 298 298 298 298 298 298 298 298 297 298 298 297 297 297 297 297 296 296 297 298 298 299 300 299 302 306 301 296 299 299 301 306 307 306 307 307 307 307 306 306 306 305 305 304 302 301 301 300
314 314 313 313 312 312 312 310 306 301 299 298 298 298 298 297 297 297 297 297 297 297 297 297 297 297 297 297 297 297 297 297 296 296 296 296 298 301 298 296 299 297 295 297 297 299 302 302 302 302 304 306 306 306 306 305 304 302 302 303 301 298 297
312 312 311 311 311 311 310 305 300 298 298 297 297 297 297 297 297 297 297 297 297 297 297 297 297 297 297 297 296 297 299 300 299 295 295 296 299 303 301 295 295 295 296 296 296 297 298 297 297 297 299 303 304 304 305 304 304 301 299 301 300 298 296
312 311 310 310 310 308 304 300 298 298 297 297 297 296 296 296 296 296 296 296 297 297 297 296 296 296 296 297 297 299 300 300 300 298 297 296 299 303 302 297 294 295 296 296 297 299 299 297 296 297 298 300 302 303 303 303 303 301 299 300 299 299 298
312 311 311 310 309 305 301 299 298 297 297 297 297 296 296 296 296 296 296 296 296 296 296 296 296 295 295 296 296 299 301 299 300 302 302 300 299 302 302 300 297 296 297 297 297 299 299 297 296 297 298 299 300 301 301 302 302 300 300 300 300 299 299
311 311 310 308 305 301 299 298 297 297 296 297 297 297 296 296 296 295 295 296 296 295 295 296 296 296 295 295 296 299 301 300 300 303 303 303 303 302 302 301 298 297 297 296 296 297 297 296 297 297 298 298 299 299 300 300 301 300 300 300 300 300 299
310 310 307 304 301 299 298 297 297 297 296 296 297 297 296 296 295 295 295 295 295 295 295 295 296 296 295 296 296 297 298 299 300 302 303 303 303 302 302 300 298 296 296 296 296 296 296 296 296 297 298 298 298 299 299 300 300 300 300 299 299 299 299
309 307 303 300 299 298 297 296 296 296 296 296 297 296 297 297 295 295 295 295 295 295 295 295 295 295 296 297 298 298 299 300 302 303 303 302 301 301 302 301 299 297 297 297 297 296 296 296 296 297 297 297 298 298 299 299 299 299 299 298 298 298 299
305 303 300 299 298 297 296 296 296 296 295 296 296 296 296 296 295 295 295 295 295 295 295 295 294 294 295 297 299 301 302 302 303 304 303 302 301 301 301 301 299 298 298 297 296 296 296 296 296 296 296 297 297 298 298 298 298 298 298 298 298 298 298
302 300 299 299 298 297 296 296 296 295 296 297 298 297 296 295 294 294 294 294 294 294 294 294 294 296 297 296 298 302 304 303 303 303 302 301 301 301 300 300 299 298 297 296 295 295 295 295 295 295 295 296 297 297 297 297 297 298 298 298 298 298 298
300 299 298 298 298 296 295 295 295 296 297 298 299 300 298 295 294 294 294 294 294 294 294 294 294 297 300 299 298 300 302 302 301 301 300 300 301 301 300 300 299 297 296 296 295 295 294 294 294 294 295 296 296 297 297 297 297 297 297 298 298 298 298
298 298 298 297 296 295 295 296 296 296 296 296 297 297 296 294 294 294 294 294 294 294 294 294 293 294 298 301 301 300 301 301 300 300 301 301 300 300 300 300 299 297 296 296 295 295 294 293 294 294 295 296 296 296 296 297 297 297 297 298 297 297 298
297 297 297 296 295 295 296 297 297 297 298 298 296 294 294 294 294 294 294 294 294 294 294 293 294 294 294 298 301 301 301 302 301 301 301 301 300 300 299 299 299 297 296 296 295 294 293 293 294 294 295 296 296 296 296 297 297 297 297 297 297 297 297
296 296 296 296 295 295 296 296 297 298 300 300 299 297 294 293 293 293 293 294 293 293 294 293 293 294 294 296 299 301 301 301 301 301 301 300 300 298 297 298 299 298 296 296 295 294 293 293 293 294 295 296 296 296 296 296 297 296 296 296 296 297 297
296 296 296 296 295 295 295 295 295 296 298 300 301 300 296 293 293 293 293 293 293 293 294 294 293 293 294 296 297 300 301 301 301 300 300 300 299 297 296 296 298 297 296 295 294 293 293 293 293 294 295 296 296 296 296 296 296 296 296 296 296 296 296
295 295 295 295 295 295 295 295 295 296 296 297 299 298 295 293 293 293 293 293 293 294 293 293 293 293 294 295 297 299 301 301 300 300 300 300 299 298 297 296 296 296 295 295 294 293 293 293 293 293 295 296 296 296 296 296 296 296 296 296 296 296 296
295 295 295 294 295 295 295 295 295 295 294 294 295 295 293 293 293 293 293 293 293 293 293 293 293 293 294 295 296 299 301 301 300 300 300 300 299 299 298 296 295 295 295 294 294 292 292 293 292 293 294 296 297 296 296 296 296 296 295 295 295 296 296
295 295 295 295 295 295 295 295 294 294 294 294 294 294 293 293 293 292 293 293 293 293 293 293 293 293 294 295 296 298 300 301 300 299 299 300 299 299 298 296 295 294 294 294 293 292 292 292 292 292 293 295 296 296 296 296 296 295 294 294 295 295 296
295 295 296 295 295 296 296 294 294 294 294 294 293 294 295 293 293 293 293 293 293 293 293 293 293 293 293 295 296 298 300 301 300 299 299 299 299 299 298 296 295 295 294 293 292 292 291 292 292 292 293 294 296 296 295 295 295 294 294 294 295 295 295
296 296 296 296 297 296 295 293 293 293 293 293 293 294 295 294 293 293 292 292 292 292 292 292 292 293 293 295 297 299 300 300 300 300 299 298 299 299 298 296 295 295 294 292 291 291 291 292 292 292 292 294 295 295 295 295 295 294 294 294 295 295 295
296 296 296 297 297 295 293 294 294 294 294 294 293 293 293 294 294 293 292 292 292 292 292 292 292 292 293 294 296 298 300 300 300 300 298 297 299 299 297 296 295 295 294 292 291 291 291 291 292 292 292 293 294 295 295 294 294 294 294 294 295 295 295
297 297 297 297 295 294 295 296 295 295 294 294 293 293 293 294 294 294 293 292 292 292 292 292 292 292 292 293 294 296 298 299 299 300 298 297 298 299 297 296 295 295 294 292 291 291 291 291 291 292 293 293 294 294 294 294 294 294 294 294 295 295 295
298 298 297 296 295 294 295 295 295 294 294 293 293 293 293 293 293 294 293 292 292 292 292 291 292 292 292 292 292 293 295 297 298 299 299 297 298 298 297 296 296 295 294 292 291 292 292 292 292 293 293 293 294 294 294 294 294 294 294 294 295 295 295
298 298 297 295 295 295 295 295 296 295 294 294 294 293 293 292 292 292 292 292 292 292 292 291 292 291 291 292 292 292 293 294 295 297 298 298 297 297 297 297 296 296 294 292 292 292 292 292 293 294 294 294 294 294 294 294 294 294 294 294 295 295 295
299 299 297 295 295 296 297 297 298 297 297 297 298 298 296 294 292 292 292 292 292 292 292 291 291 291 291 291 291 292 292 292 293 294 296 297 298 297 297 297 297 295 293 292 292 292 293 293 294 294 294 294 294 294 294 294 294 294 294 294 295 294 294
300 299 297 295 296 297 297 297 298 299 299 300 300 299 298 296 295 294 293 292 292 292 292 291 291 291 291 291 291 291 291 291 292 292 293 295 296 297 296 296 295 293 292 292 292 293 293 293 294 294 294 294 294 294 294 294 294 294 294 294 294 294 294
299 298 296 296 296 296 297 299 300 300 300 300 299 298 298 297 297 297 296 296 295 294 293 292 291 291 291 291 291 291 291 291 291 291 291 292 293 295 295 293 292 292 292 292 292 293 293 294 294 294 294 294 294 294 294 294 294 294 294 294 294 294 294
298 296 295 296 296 296 298 300 301 300 299 298 298 299 300 300 300 300 299 299 298 297 296 294 292 291 291 291 291 291 291 291 291 291 291 291 292 293 293 292 292 293 292 292 293 293 293 294 294 295 294 294 294 294 294 294 294 294 294 294 294 294 294
297 295 295 295 295 296 298 300 299 298 297 297 298 300 300 300 300 300 300 300 300 299 297 296 293 291 291 291 291 291 291 291 291 291 291 291 291 292 292 292 293 293 293 294 294 294 293 293 294 294 294 294 294 294 294 294 293 293 294 294 294 293 294
296 295 295 295 295 296 298 299 298 298 299 300 300 300 300 300 300 300 300 300 299 298 297 296 294 291 290 291 291 291 291 291 291 291 290 291 291 292 292 293 294 294 295 295 295 294 293 293 293 294 294 294 294 294 294 294 293 293 293 293 293 293 293
Wind_Speed
10 10 9 8 8 6 7 9 8 6 5 3 3 2 2 3 3 2 3 3 4 4 4 6 6 5 4 5 7 7 7 9 10 10 11 12 12 12 12 12 12 13 14 13 13 15 18 22 25 25 23 22 20 15 16 16 13 13 13 15 18 20 22
8 6 5 5 5 6 7 9 6 2 3 3 3 4 5 5 5 6 7 7 7 6 6 7 6 5 5 6 6 7 7 7 8 9 11 12 12 12 13 13 12 13 13 11 12 14 14 17 22 26 27 28 28 24 23 21 18 16 15 15 15 17 22
4 3 3 2 2 3 4 5 3 5 6 6 6 8 8 9 9 8 9 9 9 8 8 8 7 7 7 7 7 7 7 7 8 9 10 10 10 10 11 11 11 12 12 12 14 17 16 15 17 22 24 24 26 27 25 23 21 19 18 17 16 17 20
5 4 3 2 2 2 2 1 5 7 8 10 10 9 10 10 10 9 10 10 10 9 9 9 8 8 8 9 9 8 8 8 9 9 9 9 10 10 10 10 12 12 13 15 17 18 17 17 19 21 22 21 24 26 26 25 23 19 16 14 14 16 18
7 7 7 6 5 3 2 4 7 7 9 12 12 11 12 11 11 11 11 11 11 10 10 10 10 9 10 9 9 9 9 9 9 9 10 9 10 10 10 13 15 13 13 15 16 17 16 17 18 19 22 24 25 27 27 26 24 22 19 15 14 15 17
9 9 9 8 7 6 5 6 7 8 11 14 13 14 13 12 12 12 11 11 11 11 11 11 10 10 10 9 9 9 10 10 10 11 11 11 12 11 11 14 13 12 12 13 14 15 16 17 18 19 23 24 25 28 29 28 26 24 21 18 18 19 20
11 10 8 8 8 8 8 8 7 11 14 14 14 14 14 13 12 12 12 12 12 12 11 11 11 10 10 10 10 10 12 13 12 12 13 13 13 13 12 13 11 11 11 12 12 12 15 18 19 20 24 25 25 25 27 28 27 26 25 25 24 23 24
10 11 10 10 10 10 11 9 11 14 15 15 14 14 14 14 13 13 13 12 13 12 12 12 12 12 12 12 11 12 14 15 14 14 14 14 14 14 14 12 11 12 12 13 13 13 14 16 17 18 21 25 27 27 27 28 27 26 27 29 29 26 28
10 11 11 11 12 12 11 12 15 16 16 16 15 14 14 14 14 13 13 13 13 13 13 13 13 13 14 13 13 15 16 16 16 16 15 14 14 15 15 14 13 13 13 14 15 13 13 14 14 15 15 18 23 27 28 29 30 29 28 29 31 30 30
10 10 11 12 12 13 13 16 18 17 17 17 16 15 14 14 14 14 14 13 13 13 14 14 14 14 15 15 16 16 16 16 16 17 16 16 16 15 15 16 15 14 14 15 16 15 15 16 15 15 14 15 18 21 24 27 29 32 30 30 33 34 34
10 10 12 13 13 15 17 18 18 17 17 17 16 15 14 14 15 15 15 14 14 14 15 16 16 15 16 16 17 17 16 15 15 16 17 17 16 15 14 17 17 16 15 15 16 16 17 18 17 16 16 17 17 18 20 24 26 29 32 33 34 35 36
11 11 12 14 14 16 19 18 17 17 17 16 16 16 15 15 15 15 16 16 15 15 15 17 17 16 16 17 17 17 16 15 15 15 16 16 16 15 14 16 18 16 15 15 15 15 17 18 18 18 19 19 18 17 19 21 25 28 31 33 35 36 37
12 13 14 16 17 18 18 18 17 17 16 16 15 15 15 15 15 15 16 16 16 16 16 16 17 17 17 17 17 16 14 14 15 14 14 15 15 15 14 15 17 16 15 16 16 16 20 22 23 22 22 21 20 20 20 21 25 29 30 31 33 34 35
13 14 16 18 18 18 18 18 17 17 16 15 15 15 16 15 14 15 15 15 15 15 15 16 16 16 16 16 16 16 15 14 14 14 14 14 14 13 13 15 17 17 16 17 19 20 24 27 26 24 23 22 22 22 22 23 25 29 31 31 31 32 33
14 15 18 18 18 17 17 17 16 16 16 16 15 15 15 15 14 14 14 14 14 14 15 15 15 15 15 14 15 15 15 14 14 14 14 13 13 13 14 15 18 19 18 19 20 22 25 28 28 26 25 23 23 23 23 23 25 27 31 32 32 33 32
16 18 19 18 18 18 17 16 15 15 16 16 15 14 14 13 14 13 13 13 13 13 14 14 14 15 14 13 14 14 13 13 14 13 13 13 14 14 14 15 17 18 18 19 21 23 26 28 29 29 27 25 23 23 23 23 24 26 29 31 31 32 33
19 19 19 18 18 18 17 17 16 15 15 16 15 14 13 12 12 12 13 13 13 13 12 11 12 14 14 13 13 13 12 12 12 12 11 13 13 14 14 14 16 17 18 21 23 25 27 30 31 31 29 26 24 23 23 23 23 25 28 31 31 31 33
19 19 19 18 18 18 17 17 16 15 15 15 14 13 12 12 12 12 12 12 12 12 12 11 10 12 14 13 12 13 12 11 12 11 12 14 14 13 14 14 16 18 21 24 25 27 29 31 32 32 30 27 23 23 24 23 23 24 27 31 32 32 33
19 19 19 18 18 18 17 16 15 15 14 14 13 12 12 12 12 12 12 12 12 12 12 12 11 11 12 12 12 12 12 12 13 13 13 14 14 14 14 13 15 19 23 25 25 27 31 32 32 32 30 26 23 23 24 24 24 26 27 29 32 33 34
19 19 19 19 18 18 17 16 16 15 14 13 13 12 12 12 12 12 11 11 11 12 12 12 12 12 11 12 13 13 12 12 13 14 13 12 13 13 13 11 15 20 23 24 24 27 30 32 33 32 29 26 25 25 27 27 26 27 28 30 32 34 35
19 19 19 19 18 17 16 15 15 15 14 14 12 11 11 12 12 12 12 12 12 11 12 13 14 13 12 11 12 12 12 12 12 12 11 11 12 13 14 13 14 19 22 22 24 27 30 31 33 31 27 25 26 27 29 29 28 29 30 32 34 35 35
20 19 19 18 17 16 16 15 14 14 14 14 13 11 10 12 13 12 12 12 12 11 12 14 15 14 12 11 11 13 13 12 11 11 11 10 12 14 17 17 15 16 20 22 24 27 29 30 31 30 26 25 26 28 29 30 30 32 33 34 35 35 36
20 19 18 17 17 17 16 16 14 13 13 14 13 11 11 12 12 12 12 12 13 13 14 15 15 14 12 12 12 13 13 11 10 11 11 10 12 14 17 21 19 17 20 23 25 29 29 29 30 28 24 23 25 28 30 31 32 33 34 34 34 35 38
20 19 18 17 17 16 16 15 14 13 13 14 13 12 12 12 12 12 12 13 13 14 15 15 14 13 12 11 12 13 13 10 9 11 10 10 13 13 15 22 23 20 21 23 27 30 30 30 31 28 23 21 22 26 29 30 31 32 35 35 34 35 38
20 19 18 17 16 16 15 14 14 13 14 14 13 13 13 13 13 12 13 13 13 14 14 14 14 13 12 11 11 13 14 10 9 11 11 10 12 12 15 22 23 22 23 24 27 31 31 30 31 29 24 19 18 22 26 27 29 33 37 37 34 35 38
20 19 18 17 16 16 15 15 14 14 14 14 13 13 13 13 13 13 13 13 13 14 14 14 14 13 12 12 12 13 13 10 9 11 11 11 11 11 16 23 23 22 25 26 28 30 30 30 31 30 26 20 16 19 24 25 26 31 35 36 35 36 37
20 19 18 18 17 16 15 15 15 15 15 14 13 13 13 12 13 13 13 13 13 14 14 14 14 13 13 12 12 12 12 10 9 10 11 11 10 11 18 22 22 23 26 28 29 29 28 29 29 30 29 24 18 20 26 28 29 32 35 36 36 36 36
20 19 19 17 17 17 16 16 16 15 14 14 13 12 12 12 12 12 13 13 13 13 14 14 14 14 13 12 10 11 10 8 8 8 12 12 8 11 18 21 22 24 26 29 29 27 25 26 27 29 31 27 22 23 27 30 31 34 36 36 35 33 36
20 19 19 18 18 18 17 16 16 15 14 13 13 12 12 12 11 11 12 12 13 13 14 14 14 14 14 12 9 10 8 5 5 6 11 12 9 11 18 21 22 25 27 29 28 24 22 24 27 29 32 31 27 27 29 31 33 34 35 36 35 32 36
20 20 19 19 19 19 18 17 16 15 15 14 13 12 12 11 11 10 10 11 12 13 13 14 14 14 14 13 11 10 8 4 3 3 6 11 11 12 17 20 22 24 26 28 26 22 21 24 28 30 32 34 33 32 33 34 35 35 34 35 34 33 38
21 20 19 19 19 19 18 17 15 14 14 13 12 12 11 11 12 11 10 10 12 13 13 13 14 13 14 14 12 12 11 8 5 3 4 9 11 13 17 19 21 24 25 25 24 21 21 25 28 30 33 35 35 35 36 37 37 37 36 35 34 35 41
21 20 20 20 20 19 18 17 15 14 13 12 10 9 8 9 11 11 11 11 12 12 12 13 13 14 14 14 13 13 13 12 10 8 6 8 9 12 15 17 19 22 23 23 24 23 23 25 28 30 33 35 35 36 37 37 38 38 37 37 35 38 44
21 20 20 21 20 19 19 17 15 13 11 10 9 8 7 7 8 10 11 12 12 12 13 13 14 14 14 13 13 13 13 13 13 11 10 9 9 10 14 15 16 19 22 25 26 25 24 26 28 29 32 34 35 36 36 36 37 37 37 37 37 40 46
21 21 21 21 20 19 19 17 14 12 10 10 10 9 7 7 7 7 9 10 11 12 13 14 14 14 13 13 12 12 13 13 13 13 12 12 11 12 15 15 16 20 24 27 29 28 27 27 27 29 32 34 34 34 34 35 38 38 37 38 38 42 47
22 22 21 21 20 19 18 16 14 12 13 12 11 8 6 5 3 4 6 7 8 10 12 13 13 13 12 11 11 11 12 13 13 14 14 13 14 14 15 16 19 23 26 27 29 30 30 29 28 28 30 32 33 32 31 34 38 38 38 38 39 43 48
22 23 22 21 20 19 17 15 13 13 12 12 11 9 7 6 3 2 3 3 4 7 10 11 12 12 11 10 10 10 11 12 13 14 14 14 15 14 14 18 21 24 26 27 29 30 30 29 28 27 28 30 31 30 31 35 38 38 38 39 40 43 48
23 23 21 21 21 19 17 15 13 12 11 9 8 7 6 5 4 3 2 2 1 4 7 9 11 11 10 10 10 10 11 12 13 13 13 14 14 14 15 18 21 23 25 26 27 29 29 29 28 28 29 31 32 32 32 36 38 38 38 39 41 43 46
Wind_Direction
233 238 237 232 232 242 257 262 258 243 230 216 195 194 195 194 187 151 117 97 94 84 64 61 56 49 36 21 12 2 351 340 339 339 334 333 328 320 313 307 305 304 314 329 331 328 330 319 307 303 301 300 301 310 314 306 311 319 312 317 319 314 312
237 239 239 241 240 236 246 255 254 208 156 156 145 137 127 119 116 105 97 91 89 84 73 69 64 58 50 38 33 26 19 7 356 349 344 349 346 337 332 327 326 322 322 329 321 316 331 331 318 312 308 305 303 302 306 308 306 303 301 305 312 322 325
201 227 254 276 275 245 243 242 190 114 112 117 116 119 114 106 102 99 95 90 87 86 80 76 71 64 58 52 49 42 34 24 13 6 3 6 2 355 353 349 350 345 332 326 323 326 337 338 328 322 323 324 313 302 306 313 310 310 315 315 319 330 332
175 194 192 147 173 228 261 167 113 107 110 112 113 115 110 105 102 97 94 91 87 85 81 78 73 66 62 55 49 44 38 32 26 22 17 16 15 12 16 17 14 5 350 342 342 344 348 343 334 328 327 327 316 306 306 309 309 311 316 322 331 328 323
175 182 183 176 175 180 176 106 99 107 119 119 116 112 106 103 100 95 92 90 87 84 80 76 70 64 60 53 48 43 40 39 36 33 28 25 25 25 33 37 28 12 4 4 358 354 354 348 341 334 329 326 321 317 317 316 313 309 308 314 313 299 297
165 178 192 182 169 163 150 119 109 127 130 122 117 111 104 100 96 92 88 86 82 78 76 74 69 65 63 59 56 54 52 51 47 45 42 38 36 36 46 50 34 6 4 15 5 354 354 355 350 341 334 334 330 325 325 327 324 317 315 316 307 294 293
158 169 176 166 163 157 136 120 128 136 128 120 115 108 102 96 91 86 83 82 80 78 78 78 75 71 71 69 67 66 62 57 53 51 49 46 46 44 49 53 31 1 6 16 6 360 2 360 355 346 338 335 333 329 327 330 330 326 323 323 322 319 313
162 164 162 161 157 137 124 129 139 132 122 116 110 104 101 96 89 85 84 83 84 84 82 82 80 76 74 71 70 71 66 60 56 55 52 49 49 45 42 46 29 8 15 19 12 14 13 2 353 348 344 339 334 332 330 330 330 330 329 330 331 331 326
160 157 158 159 144 122 123 137 135 124 116 111 106 101 99 95 91 88 86 85 86 88 86 83 82 79 77 73 71 71 67 61 56 54 54 50 50 45 35 34 29 18 23 21 15 18 14 2 352 345 348 348 338 332 331 330 328 328 331 332 329 329 331
147 146 143 139 124 119 130 133 126 120 115 109 104 101 98 95 94 91 88 88 88 88 88 85 83 81 79 75 71 67 61 57 53 51 52 50 49 44 30 27 31 27 27 21 15 17 11 1 357 352 355 356 345 335 330 328 324 324 328 330 327 328 334
129 126 120 115 114 124 131 128 123 119 114 109 104 102 99 97 96 93 90 90 88 89 88 85 80 78 77 74 71 66 59 57 53 46 44 45 48 44 27 21 26 27 26 22 17 16 7 358 360 4 2 356 349 341 332 324 318 320 325 327 328 330 333
121 119 117 118 123 129 128 125 124 119 114 110 106 102 99 97 95 93 91 88 86 86 85 84 80 75 74 74 72 67 59 56 55 46 38 37 40 42 29 18 20 24 22 18 17 13 5 4 8 8 2 355 349 342 334 324 315 318 323 324 326 329 329
117 118 119 122 125 127 125 123 121 117 114 111 107 104 101 97 94 93 91 88 87 84 83 83 80 74 71 71 71 68 60 56 54 49 41 37 35 35 30 18 13 15 15 14 17 18 14 14 14 8 359 353 349 342 336 327 316 315 321 321 320 325 329
118 121 125 128 129 129 127 125 121 117 115 111 108 106 101 96 94 93 92 90 88 86 84 82 79 76 71 68 68 66 62 57 53 48 43 39 36 32 27 17 10 9 13 14 16 19 17 14 11 6 357 350 346 341 336 330 320 315 318 322 321 324 330
123 128 131 132 131 129 127 126 124 122 118 112 108 106 102 97 94 93 91 89 87 85 84 83 80 77 72 67 64 60 56 53 49 46 41 35 34 35 29 18 10 12 13 11 14 15 11 7 5 1 356 350 344 340 335 330 324 318 318 323 326 327 330
130 132 133 133 130 127 125 123 123 123 119 112 107 104 101 99 98 96 91 87 85 83 82 84 84 80 74 70 65 55 48 46 47 44 40 35 33 35 34 19 9 12 12 11 15 14 6 3 2 358 355 351 344 338 335 331 326 323 321 322 326 327 328
137 137 137 136 133 131 129 126 125 122 117 111 104 98 95 97 97 95 92 87 83 81 80 82 86 82 72 65 66 61 49 43 47 45 38 39 35 32 32 18 5 8 9 10 14 10 4 2 0 357 354 351 344 338 336 335 332 328 324 323 324 325 326
142 140 139 138 136 134 132 129 127 123 119 115 109 103 100 100 97 92 90 86 82 80 76 72 74 78 72 60 55 59 55 44 45 47 41 39 38 33 32 16 358 0 5 6 8 6 3 1 359 357 355 350 346 342 340 339 336 332 328 326 324 325 325
145 143 142 140 137 134 130 127 124 120 117 115 112 110 105 100 96 90 86 84 81 78 76 71 62 63 71 69 54 48 52 46 40 44 41 36 32 30 32 16 350 353 2 1 1 2 359 358 357 357 356 354 352 349 346 342 338 335 332 328 326 326 326
147 145 143 141 139 137 133 130 126 119 112 107 105 106 103 96 92 89 85 83 78 74 73 72 64 55 58 70 65 51 47 45 41 41 38 33 27 22 29 18 349 351 0 356 355 359 357 356 357 357 356 357 356 353 351 347 341 338 335 332 330 329 327
149 147 146 145 143 142 139 136 133 126 118 109 101 98 99 96 92 90 87 83 78 75 72 67 63 58 53 60 68 62 50 43 41 40 35 29 21 18 27 24 356 350 355 353 354 359 358 357 357 356 355 357 357 353 350 348 344 341 338 336 334 332 329
152 150 149 147 145 142 137 134 132 129 125 117 108 102 99 95 91 88 86 81 76 72 68 63 58 55 54 56 65 70 60 44 35 35 35 24 9 9 19 20 6 351 350 353 355 358 359 360 358 354 354 358 357 352 348 346 344 342 340 338 335 334 332
152 150 149 147 145 142 137 135 132 130 130 125 117 112 104 96 90 84 80 75 71 64 58 57 52 49 54 58 64 73 68 48 32 31 34 21 2 360 4 6 6 359 352 352 354 357 359 0 360 355 352 358 358 351 346 345 344 343 341 337 335 335 334
151 150 148 145 144 143 139 138 136 133 130 125 121 115 105 97 89 81 75 68 64 60 55 53 50 46 50 57 65 74 70 51 29 27 31 17 2 357 354 357 0 0 357 352 351 355 358 358 358 354 350 358 359 349 346 345 343 343 342 338 335 336 335
152 149 147 146 145 141 139 137 136 135 131 125 122 116 106 98 89 80 74 67 61 58 55 52 50 44 46 55 64 72 68 52 27 25 27 16 4 352 345 352 356 358 358 353 349 352 354 354 355 352 350 358 358 347 345 343 337 338 342 341 337 336 335
151 149 149 148 144 142 142 141 139 136 131 127 124 118 107 98 90 81 74 68 62 59 55 51 49 44 44 54 63 66 63 47 25 21 16 10 2 338 336 350 356 356 354 351 348 349 350 350 349 349 352 357 355 346 344 340 335 338 344 342 336 334 335
153 152 150 147 145 146 146 141 136 131 126 124 121 116 110 101 92 84 76 70 63 60 56 51 49 45 44 51 58 61 54 36 24 14 2 7 4 329 333 349 355 353 350 348 348 348 348 347 346 349 353 354 354 350 343 338 337 338 341 341 336 332 332
154 151 149 148 149 149 143 138 133 128 124 123 117 113 111 105 95 85 78 72 65 61 56 52 50 46 45 49 54 63 58 36 31 11 351 7 12 326 333 350 353 352 349 347 349 350 349 349 350 355 357 355 354 352 343 340 340 338 338 339 336 332 330
153 151 152 152 152 148 143 139 136 131 127 124 118 114 110 104 100 91 83 74 66 61 57 53 51 47 46 45 45 61 64 41 46 28 352 3 8 330 336 348 350 350 348 345 348 351 352 354 357 1 1 357 355 351 345 343 343 341 340 338 336 333 330
154 153 154 154 153 150 145 140 135 131 128 123 116 112 107 102 99 92 85 79 70 63 56 52 50 46 46 44 38 49 59 39 56 75 9 8 4 337 338 347 347 346 344 344 348 352 354 357 360 2 0 356 353 349 346 346 346 343 341 338 337 335 331
154 152 154 155 153 149 142 136 132 129 125 118 110 106 103 100 96 89 82 76 70 64 57 51 48 43 42 40 36 42 52 45 38 61 47 27 10 345 342 347 343 340 342 348 354 356 356 357 360 0 356 352 349 345 344 346 345 342 341 340 340 334 332
151 152 157 157 152 147 141 137 134 130 123 114 108 105 102 98 95 88 79 71 64 60 56 50 45 41 37 34 33 37 44 44 36 29 35 38 18 351 346 345 337 337 348 360 4 4 2 2 2 358 354 350 346 343 344 345 343 342 342 342 339 334 334
154 157 161 158 152 148 144 138 130 121 115 118 128 136 130 108 91 80 71 64 57 50 47 44 40 35 30 26 27 30 34 37 34 26 23 32 24 355 345 342 338 347 4 13 11 8 5 5 2 357 354 352 347 345 346 345 343 343 343 341 338 336 338
159 161 161 157 153 149 144 137 129 126 136 150 152 141 123 100 78 63 53 46 41 35 32 33 34 30 23 18 19 25 29 30 29 24 21 27 25 1 346 347 356 7 15 16 13 8 3 1 359 355 353 351 346 344 346 345 343 344 343 342 340 339 341
163 162 160 158 156 152 145 138 138 150 164 165 152 133 119 107 85 54 35 22 14 12 13 17 23 23 17 14 15 21 28 29 26 22 19 19 17 4 354 360 10 14 15 13 9 4 1 360 358 355 351 348 345 346 346 344 344 345 345 345 343 341 344
165 163 162 161 157 152 145 140 145 152 151 140 130 128 135 138 128 93 60 27 348 346 353 0 10 15 13 13 15 20 26 29 25 19 15 15 12 6 5 12 15 13 10 7 4 360 358 359 359 355 351 349 350 351 348 345 346 347 347 348 346 344 346
167 166 165 161 157 153 147 145 148 144 127 114 113 120 130 134 130 130 128 127 327 336 343 345 354 4 9 12 16 17 22 27 23 14 12 14 12 7 11 16 14 7 4 2 360 357 355 356 357 355 352 351 353 353 350 348 349 349 349 349 348 348 349